Regional Weather Roundup
Issued by NWS

Home | Current Version | Previous Version | Graphics & Text | Print | Product List | Glossary On
Versions: 1 2 3 4 5 6 7 8 9 10 11 12 13 14 15 16 17 18 19 20 21 22 23 24 25 26 27 28 29 30 31 32 33 34 35 36 37 38 39 40 41 42 43 44 45 46 47 48 49 50
000
ASUS43 KDMX 280907
RWRIA

WEATHER ROUNDUP FOR IOWA
NATIONAL WEATHER SERVICE DES MOINES IA
300 AM CST WED JAN 28 2015

NOTE: "FAIR" INDICATES FEW OR NO CLOUDS BELOW 12,000 FEET WITH NO
SIGNIFICANT WEATHER AND/OR OBSTRUCTIONS TO VISIBILITY.

* - THESE STATIONS ARE NOT NWS STATIONS...THUS NOT UNDER NWS
QUALITY CONTROL.  THEY ALSO DO NOT REPORT WEATHER SUCH
AS PRECIPITATION OR FOG.

IAZ001>003-012>014-020>022-031>034-043>046-281000-
   NORTHWEST IOWA

CITY           SKY/WX    TMP DP  RH WIND       PRES   REMARKS
CARROLL *      CLOUDY    30  28  93 SE14G20   30.01S FOG     WCI  20
CHEROKEE *     CLEAR     30  30 100 SE5       29.98S WCI  25
DENISON *      CLEAR     34  32  93 SE6       29.95F WCI  29
LE MARS *      CLEAR     34  32  93 SE8       29.94F WCI  27
ORANGE CITY *  CLEAR     34  30  86 SE8       29.93F WCI  27
SHELDON *      CLEAR     34  32  93 SE16G22   29.93F WCI  23
SIOUX CITY     PTCLDY    31  28  89 SE8       29.93F WCI  23
SPENCER        MOCLDY    31  28  89 SE13      29.98F WCI  21
STORM LAKE *   MOCLDY    30  28  93 SE17      29.98F FOG     WCI  18
$$

IAZ055>058-069>071-079>083-090>094-281000-
   SOUTHWEST IOWA

CITY           SKY/WX    TMP DP  RH WIND       PRES   REMARKS
ATLANTIC *     CLEAR     36  30  80 SE6       29.98F WCI  31
AUDUBON *      CLEAR     32  28  86 SE8       30.00F WCI  25
CLARINDA *     CLEAR     37  32  81 SE8G14    30.00F WCI  31
COUNCIL BLFS * CLEAR     34  32  93 SE12      29.94S WCI  25
CRESTON *      PTCLDY    30  30 100 SE14      30.02F FOG     WCI  20
HARLAN  *      CLEAR     36  36 100 SE13      30.00F WCI  27
LAMONI         CLEAR     30  28  92 SE8       30.05S WCI  22
RED OAK *      CLEAR     36  30  80 SE8       29.98F WCI  29
SHENANDOAH *   CLEAR     37  32  81 SE10      29.97F WCI  30
$$

IAZ047>049-059>061-072>074-084-281000-
   CENTRAL IOWA

CITY           SKY/WX    TMP DP  RH WIND       PRES   REMARKS
AMES           CLOUDY    29  27  92 SE15G21   30.08F FOG     WCI  18
ANKENY *       CLOUDY    30  28  93 SE12G20   30.09S FOG     WCI  21
CHARITON *     CLOUDY    30  28  93 SE16      30.08F FOG     WCI  19
DES MOINES     CLOUDY    30  27  88 SE13      30.08F FOG     WCI  20
GRINNELL*      CLOUDY    28  28 100 SE14      30.11F FOG     WCI  17
KNOXVILLE *    CLOUDY    30  28  93 SE15G22   30.08F FOG     WCI  19
MARSHALLTOWN   CLOUDY    28  26  92 SE18      30.10S FOG     WCI  15
PELLA *        CLOUDY    30  28  93 SE12      30.13F FOG     WCI  21
PERRY *          N/A     30  30 100 SE14G21   30.05S FOG     WCI  20
$$

IAZ004>006-015-016-023>025-035-036-281000-
   NORTH CENTRAL IOWA

CITY           SKY/WX    TMP DP  RH WIND       PRES   REMARKS
ALGONA *       CLOUDY    30  30 100 SE20      30.04R FOG     WCI  18
CLARION *      CLOUDY    30  30 100 SE18G24   30.06S FOG     WCI  18
ESTHERVILLE    CLOUDY    30  29  96 S20       30.00F FOG     WCI  17
FORT DODGE *   CLOUDY    30  27  86 SE8G16    30.05R WCI  23
MASON CITY     CLOUDY    28  27  96 SE14      30.09F FOG     WCI  17
FOREST CITY *  CLOUDY    30  28  93 SE13G18   30.06F FOG     WCI  20
IOWA FALLS *   CLOUDY    28  28 100 SE14G21   30.09F FOG     WCI  17
$$

IAZ007>011-017>019-026>030-037>042-050>054-066-281000-
   NORTHEAST IOWA

CITY           SKY/WX    TMP DP  RH WIND       PRES   REMARKS
CEDAR RAPIDS   CLOUDY    26  24  92 SE12      30.16F FOG     WCI  16
CHARLES CITY * CLOUDY    27  27 100 SE15      30.12S FOG     WCI  15
CLINTON *      CLOUDY    27  23  86 S12       30.25F WCI  16
DECORAH *      CLOUDY    25  23  93 SE9G16    30.14S WCI  15
DUBUQUE        CLOUDY    25  22  88 S14       30.17F FOG     WCI  13
MONTICELLO *   CLOUDY    27  25  93 SE14      30.20S WCI  15
OELWEIN *      CLOUDY    27  25  93 SE14      30.16S FOG     WCI  15
WATERLOO       CLOUDY    27  25  92 SE16      30.13F FOG     WCI  15
$$

IAZ064-065-067-068-078-281000-
   EAST CENTRAL IOWA

CITY           SKY/WX    TMP DP  RH WIND       PRES   REMARKS
DAVENPORT      CLOUDY    27  23  85 S13       30.22F WCI  16
IOWA CITY      CLOUDY    27  24  89 SE13      30.20F FOG     WCI  16
MT. PLEASANT * CLOUDY    28  28 100 SE13      30.19F FOG     WCI  18
MUSCATINE *    CLOUDY    30  27  86 SE7       30.21F WCI  23
QUAD CITIES    CLOUDY    28  24  85 SE8       30.22F WCI  20
$$

IAZ062-063-075>077-085>089-095>099-281000-
   SOUTHEAST IOWA

CITY           SKY/WX    TMP DP  RH WIND       PRES   REMARKS
BURLINGTON     CLOUDY    30  27  88 S13       30.20S FOG     WCI  20
FAIRFIELD *    CLOUDY    30  28  93 SE10G16   30.17S FOG     WCI  21
FORT MADISON * CLOUDY    28  28 100 SE9       30.21S FOG     WCI  20
KEOKUK *       CLOUDY    30  28  93 SE7G14    30.19F WCI  23
OSKALOOSA *    CLOUDY    28  28 100 SE16      30.14F FOG     WCI  17
CENTERVILLE *  CLOUDY    28  28 100 SE12      30.12F WCI  18
OTTUMWA        CLOUDY    29  28  96 SE14      30.14F FOG     WCI  18
WASHINGTON *   CLOUDY    28  30 100 SE14      30.18F FOG     WCI  17
$$

ABBREVIATIONS USED IN REMARKS
   TC - TEMPERATURES IN CELSIUS
  WCI - WIND CHILL INDEX
   HX - HEAT INDEX
  VSB - VISIBILITY
$$



USA.gov is the U.S. government's official web portal to all federal, state and local government web resources and services.